Multibeam Report for HLY14TD


Ship Name: Healy
Chief Scientist: None
Source Organization: Rolling Deck to Repository
Start Date: 2014-07-31
End Date: 2014-08-03


View ISO Metadata

Visit the full NCEI Bathymetry Viewer


Multibeam Bathymetry

Cruise Details

Project: Transit
Instrument: Kongsberg EM122

Data Quality

Number of Files: 139
Number of Records: 750368
BATHYMETRY DATA Quantity Percentage
Number of Beams 324158976 100%
Number of Good Beams 293823516 90.64%
Number of Zero Beams 0 0%
Number of Flagged Beams 30335460 9.36%
AMPLITUDE DATA Quantity Percentage
Number of Beams 324158976 100%
Number of Good Beams 293823516 90.64%
Number of Zero Beams 0 0%
Number of Flagged Beams 30335460 9.36%
SIDESCAN DATA Quantity Percentage
Number of Pixels 768376832 100%
Number of Good Pixels 533714403 69.46%
Number of Zero Pixels 0 0%
Number of Flagged Pixels 234662429 30.54%

Navigation Totals

Total Time: 66.3105 hours
Total Track Length: 1486.2522 km
Average Speed: 22.414 km/hr (12.1026 knots)

Cruise Bounds

Northern Extent: 60.1164
Southern Extent: 53.89312
Western Extent: -166.5244
Eastern Extent: -149.27045

Limits

Minimum Sonar Depth 7.8789 Maximum Sonar Depth 9.3396
Minimum Altitude 0 Maximum Altitude 1989.0975
Minimum Depth 21.3839 Maximum Depth 2188.4294
Minimum Amplitude 0 Maximum Amplitude 7.9
Minimum Sidescan 0 Maximum Sidescan 15.58

File Information

Full Resolution Bathymetry as collected (raw): 136

Files File Size Description
0000_20140731_032829_HEALY.all.mb58.gz 234.17MB Kongsberg multibeam vendor format
0001_20140731_035829_HEALY.all.mb58.gz 217.23MB Kongsberg multibeam vendor format
0002_20140731_042830_HEALY.all.mb58.gz 139.78MB Kongsberg multibeam vendor format
0003_20140731_045830_HEALY.all.mb58.gz 82.63MB Kongsberg multibeam vendor format
0004_20140731_052830_HEALY.all.mb58.gz 83.41MB Kongsberg multibeam vendor format
0005_20140731_055831_HEALY.all.mb58.gz 80.26MB Kongsberg multibeam vendor format
0006_20140731_062831_HEALY.all.mb58.gz 88.01MB Kongsberg multibeam vendor format
0007_20140731_065830_HEALY.all.mb58.gz 132.90MB Kongsberg multibeam vendor format
0008_20140731_072829_HEALY.all.mb58.gz 173.25MB Kongsberg multibeam vendor format
0009_20140731_075829_HEALY.all.mb58.gz 168.34MB Kongsberg multibeam vendor format
0010_20140731_082829_HEALY.all.mb58.gz 131.79MB Kongsberg multibeam vendor format
0011_20140731_085829_HEALY.all.mb58.gz 160.95MB Kongsberg multibeam vendor format
0012_20140731_092829_HEALY.all.mb58.gz 194.92MB Kongsberg multibeam vendor format
0013_20140731_095829_HEALY.all.mb58.gz 183.57MB Kongsberg multibeam vendor format
0014_20140731_102829_HEALY.all.mb58.gz 175.25MB Kongsberg multibeam vendor format
0015_20140731_105829_HEALY.all.mb58.gz 187.95MB Kongsberg multibeam vendor format
0016_20140731_112829_HEALY.all.mb58.gz 195.27MB Kongsberg multibeam vendor format
0017_20140731_115829_HEALY.all.mb58.gz 195.90MB Kongsberg multibeam vendor format
0018_20140731_122829_HEALY.all.mb58.gz 171.55MB Kongsberg multibeam vendor format
0019_20140731_125829_HEALY.all.mb58.gz 195.28MB Kongsberg multibeam vendor format
0020_20140731_132829_HEALY.all.mb58.gz 195.36MB Kongsberg multibeam vendor format
0021_20140731_135829_HEALY.all.mb58.gz 197.96MB Kongsberg multibeam vendor format
0022_20140731_142829_HEALY.all.mb58.gz 197.15MB Kongsberg multibeam vendor format
0023_20140731_145829_HEALY.all.mb58.gz 197.57MB Kongsberg multibeam vendor format
0024_20140731_152829_HEALY.all.mb58.gz 113.08MB Kongsberg multibeam vendor format
0025_20140731_155830_HEALY.all.mb58.gz 71.63MB Kongsberg multibeam vendor format
0026_20140731_162832_HEALY.all.mb58.gz 138.01MB Kongsberg multibeam vendor format
0027_20140731_165829_HEALY.all.mb58.gz 196.18MB Kongsberg multibeam vendor format
0028_20140731_172829_HEALY.all.mb58.gz 197.55MB Kongsberg multibeam vendor format
0029_20140731_175829_HEALY.all.mb58.gz 166.05MB Kongsberg multibeam vendor format
0030_20140731_182829_HEALY.all.mb58.gz 101.07MB Kongsberg multibeam vendor format
0031_20140731_185829_HEALY.all.mb58.gz 104.00MB Kongsberg multibeam vendor format
0032_20140731_192830_HEALY.all.mb58.gz 132.83MB Kongsberg multibeam vendor format
0033_20140731_195829_HEALY.all.mb58.gz 167.04MB Kongsberg multibeam vendor format
0034_20140731_202829_HEALY.all.mb58.gz 167.70MB Kongsberg multibeam vendor format
0035_20140731_205829_HEALY.all.mb58.gz 146.18MB Kongsberg multibeam vendor format
0036_20140731_212829_HEALY.all.mb58.gz 149.73MB Kongsberg multibeam vendor format
0037_20140731_215829_HEALY.all.mb58.gz 176.16MB Kongsberg multibeam vendor format
0038_20140731_222829_HEALY.all.mb58.gz 187.24MB Kongsberg multibeam vendor format
0039_20140731_225829_HEALY.all.mb58.gz 197.91MB Kongsberg multibeam vendor format
0040_20140731_232829_HEALY.all.mb58.gz 197.36MB Kongsberg multibeam vendor format
0041_20140731_235829_HEALY.all.mb58.gz 196.79MB Kongsberg multibeam vendor format
0042_20140801_002829_HEALY.all.mb58.gz 198.15MB Kongsberg multibeam vendor format
0043_20140801_005829_HEALY.all.mb58.gz 189.41MB Kongsberg multibeam vendor format
0044_20140801_012829_HEALY.all.mb58.gz 147.54MB Kongsberg multibeam vendor format
0045_20140801_015829_HEALY.all.mb58.gz 128.81MB Kongsberg multibeam vendor format
0046_20140801_022830_HEALY.all.mb58.gz 146.16MB Kongsberg multibeam vendor format
0047_20140801_025829_HEALY.all.mb58.gz 196.89MB Kongsberg multibeam vendor format
0048_20140801_032829_HEALY.all.mb58.gz 197.83MB Kongsberg multibeam vendor format
0049_20140801_035829_HEALY.all.mb58.gz 196.31MB Kongsberg multibeam vendor format
0050_20140801_042829_HEALY.all.mb58.gz 176.70MB Kongsberg multibeam vendor format
0051_20140801_045829_HEALY.all.mb58.gz 170.47MB Kongsberg multibeam vendor format
0052_20140801_052829_HEALY.all.mb58.gz 179.77MB Kongsberg multibeam vendor format
0053_20140801_055829_HEALY.all.mb58.gz 174.25MB Kongsberg multibeam vendor format
0054_20140801_062829_HEALY.all.mb58.gz 137.14MB Kongsberg multibeam vendor format
0055_20140801_065829_HEALY.all.mb58.gz 121.77MB Kongsberg multibeam vendor format
0056_20140801_072830_HEALY.all.mb58.gz 118.76MB Kongsberg multibeam vendor format
0057_20140801_075830_HEALY.all.mb58.gz 117.85MB Kongsberg multibeam vendor format
0058_20140801_082829_HEALY.all.mb58.gz 131.93MB Kongsberg multibeam vendor format
0059_20140801_085829_HEALY.all.mb58.gz 121.86MB Kongsberg multibeam vendor format
0060_20140801_092829_HEALY.all.mb58.gz 122.18MB Kongsberg multibeam vendor format
0061_20140801_095830_HEALY.all.mb58.gz 124.58MB Kongsberg multibeam vendor format
0062_20140801_102829_HEALY.all.mb58.gz 84.04MB Kongsberg multibeam vendor format
0063_20140801_105829_HEALY.all.mb58.gz 74.96MB Kongsberg multibeam vendor format
0064_20140801_112831_HEALY.all.mb58.gz 78.22MB Kongsberg multibeam vendor format
0065_20140801_115830_HEALY.all.mb58.gz 120.82MB Kongsberg multibeam vendor format
0066_20140801_122829_HEALY.all.mb58.gz 153.09MB Kongsberg multibeam vendor format
0067_20140801_125829_HEALY.all.mb58.gz 135.71MB Kongsberg multibeam vendor format
0068_20140801_132830_HEALY.all.mb58.gz 115.05MB Kongsberg multibeam vendor format
0069_20140801_135830_HEALY.all.mb58.gz 162.18MB Kongsberg multibeam vendor format
0070_20140801_142829_HEALY.all.mb58.gz 193.98MB Kongsberg multibeam vendor format
0071_20140801_145829_HEALY.all.mb58.gz 196.73MB Kongsberg multibeam vendor format
0072_20140801_152829_HEALY.all.mb58.gz 194.30MB Kongsberg multibeam vendor format
0073_20140801_155829_HEALY.all.mb58.gz 188.81MB Kongsberg multibeam vendor format
0074_20140801_162829_HEALY.all.mb58.gz 294.33MB Kongsberg multibeam vendor format
0075_20140801_165829_HEALY.all.mb58.gz 263.90MB Kongsberg multibeam vendor format
0076_20140801_172829_HEALY.all.mb58.gz 241.21MB Kongsberg multibeam vendor format
0077_20140801_175829_HEALY.all.mb58.gz 220.53MB Kongsberg multibeam vendor format
0078_20140801_182829_HEALY.all.mb58.gz 213.60MB Kongsberg multibeam vendor format
0079_20140801_185829_HEALY.all.mb58.gz 233.50MB Kongsberg multibeam vendor format
0080_20140801_192829_HEALY.all.mb58.gz 300.68MB Kongsberg multibeam vendor format
0081_20140801_195829_HEALY.all.mb58.gz 198.03MB Kongsberg multibeam vendor format
0082_20140801_202829_HEALY.all.mb58.gz 197.10MB Kongsberg multibeam vendor format
0083_20140801_205829_HEALY.all.mb58.gz 197.83MB Kongsberg multibeam vendor format
0084_20140801_212829_HEALY.all.mb58.gz 95.35MB Kongsberg multibeam vendor format
0085_20140801_215829_HEALY.all.mb58.gz 41.05MB Kongsberg multibeam vendor format
0086_20140801_222829_HEALY.all.mb58.gz 162.64MB Kongsberg multibeam vendor format
0087_20140801_225829_HEALY.all.mb58.gz 197.87MB Kongsberg multibeam vendor format
0088_20140801_232829_HEALY.all.mb58.gz 196.23MB Kongsberg multibeam vendor format
0089_20140801_235829_HEALY.all.mb58.gz 196.82MB Kongsberg multibeam vendor format
0090_20140802_002829_HEALY.all.mb58.gz 196.55MB Kongsberg multibeam vendor format
0091_20140802_005829_HEALY.all.mb58.gz 196.97MB Kongsberg multibeam vendor format
0092_20140802_012829_HEALY.all.mb58.gz 152.37MB Kongsberg multibeam vendor format
0093_20140802_015829_HEALY.all.mb58.gz 154.15MB Kongsberg multibeam vendor format
0094_20140802_022829_HEALY.all.mb58.gz 148.60MB Kongsberg multibeam vendor format
0095_20140802_025829_HEALY.all.mb58.gz 157.47MB Kongsberg multibeam vendor format
0096_20140802_032829_HEALY.all.mb58.gz 167.90MB Kongsberg multibeam vendor format
0097_20140802_035829_HEALY.all.mb58.gz 195.32MB Kongsberg multibeam vendor format
0098_20140802_042829_HEALY.all.mb58.gz 197.09MB Kongsberg multibeam vendor format
0099_20140802_045829_HEALY.all.mb58.gz 197.03MB Kongsberg multibeam vendor format
0100_20140802_052829_HEALY.all.mb58.gz 196.67MB Kongsberg multibeam vendor format
0101_20140802_055829_HEALY.all.mb58.gz 196.48MB Kongsberg multibeam vendor format
0102_20140802_062829_HEALY.all.mb58.gz 196.36MB Kongsberg multibeam vendor format
0103_20140802_065829_HEALY.all.mb58.gz 195.17MB Kongsberg multibeam vendor format
0104_20140802_072829_HEALY.all.mb58.gz 194.78MB Kongsberg multibeam vendor format
0105_20140802_075829_HEALY.all.mb58.gz 195.98MB Kongsberg multibeam vendor format
0106_20140802_082829_HEALY.all.mb58.gz 197.42MB Kongsberg multibeam vendor format
0107_20140802_085829_HEALY.all.mb58.gz 177.73MB Kongsberg multibeam vendor format
0108_20140802_092829_HEALY.all.mb58.gz 155.39MB Kongsberg multibeam vendor format
0109_20140802_095829_HEALY.all.mb58.gz 178.81MB Kongsberg multibeam vendor format
0110_20140802_102829_HEALY.all.mb58.gz 197.32MB Kongsberg multibeam vendor format
0111_20140802_105829_HEALY.all.mb58.gz 184.83MB Kongsberg multibeam vendor format
0112_20140802_112829_HEALY.all.mb58.gz 125.83MB Kongsberg multibeam vendor format
0113_20140802_115830_HEALY.all.mb58.gz 131.29MB Kongsberg multibeam vendor format
0114_20140802_122829_HEALY.all.mb58.gz 140.22MB Kongsberg multibeam vendor format
0115_20140802_125830_HEALY.all.mb58.gz 126.22MB Kongsberg multibeam vendor format
0116_20140802_132830_HEALY.all.mb58.gz 118.85MB Kongsberg multibeam vendor format
0117_20140802_135829_HEALY.all.mb58.gz 135.63MB Kongsberg multibeam vendor format
0118_20140802_142829_HEALY.all.mb58.gz 153.54MB Kongsberg multibeam vendor format
0119_20140802_145829_HEALY.all.mb58.gz 164.23MB Kongsberg multibeam vendor format
0120_20140802_152829_HEALY.all.mb58.gz 161.12MB Kongsberg multibeam vendor format
0121_20140802_155829_HEALY.all.mb58.gz 149.62MB Kongsberg multibeam vendor format
0122_20140802_162829_HEALY.all.mb58.gz 115.04MB Kongsberg multibeam vendor format
0123_20140802_165829_HEALY.all.mb58.gz 114.52MB Kongsberg multibeam vendor format
0124_20140802_172829_HEALY.all.mb58.gz 116.45MB Kongsberg multibeam vendor format
0125_20140802_175830_HEALY.all.mb58.gz 117.30MB Kongsberg multibeam vendor format
0126_20140802_182830_HEALY.all.mb58.gz 115.31MB Kongsberg multibeam vendor format
0127_20140802_185829_HEALY.all.mb58.gz 114.81MB Kongsberg multibeam vendor format
0128_20140802_192829_HEALY.all.mb58.gz 118.17MB Kongsberg multibeam vendor format
0129_20140802_195829_HEALY.all.mb58.gz 115.98MB Kongsberg multibeam vendor format
0130_20140802_202830_HEALY.all.mb58.gz 106.04MB Kongsberg multibeam vendor format
0131_20140802_205830_HEALY.all.mb58.gz 110.53MB Kongsberg multibeam vendor format
0132_20140802_212829_HEALY.all.mb58.gz 101.43MB Kongsberg multibeam vendor format
0133_20140802_215830_HEALY.all.mb58.gz 121.67MB Kongsberg multibeam vendor format
0134_20140802_222829_HEALY.all.mb58.gz 64.29MB Kongsberg multibeam vendor format
9999.all.mb58.gz 0.54MB Kongsberg multibeam vendor format

Metadata Files: 2

Files File Size Description
HLY14TD_Multibeam.xml NGDC created ISO metadata
em122_bag_info.tar.gz 11.5KB Additional cruise information

Water Column Sonar Data

Water Column Sonar Data Available: WCSD Map Viewer